SENTINEL-3B (43437 NORAD) Tracking and Keplerian Element Data

This shows tracking and keplerian element data for the satellite.

Feedback or suggestion? Click here.




ElementValue
Catalog43437
NameSENTINEL-3B
Epoch Orbit23033
Epoch Day270.1424226
Epoch Year2022
RAAN335.9885
Inclination98.6194
Eccentricity7.16E-05
Argument of Perigee82.6699
Mean Anonmoly277.4563
Mean Motion14.2673839
Decay Rate1.06E-06
L11 43437U 18039A 22270.14242260 .00000106 00000+0 61932-4 0 9997
L22 43437 98.6194 335.9885 0000716 82.6699 277.4563 14.26738390230333

Live tracking and technical data element details for SENTINEL-3B (NORAD 43437). SENTINEL-3B can be tracked NOW for your location showing map with azimuth and elevation plus other details from your city location.

Track the satellite on the map from your city or location and see movement details for azimuth, elevation, latitude, longitude, range, height, and movement on the map or in text.







IsCatalogInMostPopularTable: catalog: 43437, numindb: 736
Update: records affected: 1



GetName: 43437 SENTINEL-3B

Hit Count: updated at: Thu, 29 Sep 2022 11:43:20 GMT